DAATDAAP

Guest
Details From DAAT - TAMANRASSET
To DAAP - ILLIZI TAKHAMALT
Flight Number -
Tags generated
Created
Modified
Stats Distance 292 nm / 541 km
Max Altitude 27,200 ft / 8,291 m
Waypoints 5
Social Downloads 0
Likes 0
Share VATSIM

Download

Looking for another format? Having issues loading an existing format? Contact us
Advertisement - Login to hide

Notes

Basic altitude profile: - Ascent Rate: 2700ft/min - Ascent Speed: 250kts - Cruise Altitude: 330ft - Cruise Speed: 470kts - Descent Rate: 4000ft/min - Descent Speed: 260kts Options: - Use NATs: yes - Use PACOTS: yes - Use low airways: no - Use high airways: yes

Route

DAAT TMS UB727 HINAN DAAP

ID Type Via Altitude Latitude Longitude Leg Dist Tot Dist Heading (true) Name
O DAAT APT - 0 ft / 0 m 22.81038˚ 5.44440˚ - 0 nm - TAMANRASSET
TMS VOR - 800 ft / 244 m 22.84278˚ 5.46472˚ 2 nm 2 nm 30° / 30° TAMANRASSET VOR-DME
BERTI FIX UB727 (AWY-HI) 27,200 ft / 8,291 m 25.04139˚ 7.19500˚ 162 nm 164 nm 35° / 36° -
HINAN FIX UB727 (AWY-HI) 23,500 ft / 7,163 m 26.00000˚ 7.95000˚ 70 nm 235 nm 35° / 36° -
O DAAP APT - 0 ft / 0 m 26.72353˚ 8.62265˚ 56 nm 292 nm 40° / 40° ILLIZI TAKHAMALT

Altitude Profile

Advertisement - Login to hide

Weather


0- 5 10 15 20 25 30 35+ Temperature / ° C

Clouds and Precipitation
Forecast for 2018-05-23 00:00 UTC. Updated 3 hours ago

Ground ~20,000 ft ~40,000 ft Winds

DAAT

Details ICAO DAAT (TMR)
Name TAMANRASSET
Region Algeria
Timezone Africa/Algiers (UTC+1.0)
Stats Elevation 4,518 ft / 1,377 m (AMSL)
Location 22.810384° 5.444403°
Runways 2
Magnetic Variation 0.638° E

METAR

DAAT 230130Z 05007KT 6000 SCT046 26/M04 Q1020

Decode

TAF

TAF DAAT 222300Z 2300/2324 08008KT 6000 SCT046 SCT100 PROB30 TEMPO 2300/2304 08015G25KT BECMG 2308/2311 18012KT PROB30 TEMPO 2312/2318 FEW040TCU BECMG 2317/2320 36014KT

Decode

Departure Runways

ID Width Length Bearing (true) Bearing (mag) Surface Threshold Offset Overrun Length
02 148 ft / 45 m 11,884 ft / 3,622 m 22.21° 21.57° Asphalt 0 ft / 0 m 0 ft / 0 m
08 148 ft / 45 m 10,169 ft / 3,099 m 81.74° 81.10° Asphalt 0 ft / 0 m 0 ft / 0 m
20 148 ft / 45 m 11,884 ft / 3,622 m 202.22° 201.58° Asphalt 0 ft / 0 m 0 ft / 0 m
26 148 ft / 45 m 10,169 ft / 3,099 m 261.75° 261.11° Asphalt 0 ft / 0 m 0 ft / 0 m

DAAP

Details ICAO DAAP (VVZ)
Name ILLIZI TAKHAMALT
Region Algeria
Timezone Africa/Algiers (UTC+1.0)
Stats Elevation 1,778 ft / 542 m (AMSL)
Location 26.723534° 8.622653°
Runways 1
Magnetic Variation 1.521° E

METAR

DAAP 230100Z 16010KT 5000 SCT046 26/14 Q1015

Decode

TAF

Not found

Destination Runways

ID Width Length Bearing (true) Bearing (mag) Surface Threshold Offset Overrun Length
09 148 ft / 45 m 9,902 ft / 3,018 m 90.46° 88.94° Asphalt 0 ft / 0 m 0 ft / 0 m
27 148 ft / 45 m 9,902 ft / 3,018 m 270.47° 268.95° Asphalt 0 ft / 0 m 0 ft / 0 m

Popular Alternatives